Date,TemperatureHighF,TemperatureAvgF,TemperatureLowF,DewpointHighF,DewpointAvgF,DewpointLowF,HumidityHigh,HumidityAvg,HumidityLow,PressureMaxIn,PressureMinIn,WindSpeedMaxMPH,WindSpeedAvgMPH,GustSpeedMaxMPH,PrecipitationSumIn
2013-1-1,37.3,32.2,23.3,26.0,18.5,9.0,71,58,44,29.81,29.65,12,3,0,0.09
2013-1-2,30.4,22.4,14.8,12.0,7.3,0.0,65,53,43,29.98,29.79,12,3,0,0.02
2013-1-3,24.2,16.4,7.4,10.0,-1.2,-7.0,68,47,29,30.04,29.90,11,2,0,0.00
2013-1-4,38.8,30.0,18.4,23.0,18.1,10.0,72,62,44,29.90,29.74,12,1,0,0.09
2013-1-5,41.8,32.6,23.3,22.0,19.2,18.0,83,59,39,30.17,29.78,12,2,0,0.01
2013-1-6,40.9,29.3,23.3,33.0,16.9,-99.9,91,76,66,30.13,29.85,6,-73,0,0.03
2013-1-7,39.8,31.6,25.4,29.0,25.0,22.0,91,78,53,30.32,29.87,12,2,0,0.01
2013-1-8,45.8,34.6,24.7,32.0,22.6,-99.9,91,71,52,30.29,30.18,14,-20,0,0.01
2013-1-9,45.1,34.7,24.5,38.0,24.2,-99.9,93,76,62,30.30,29.91,12,-29,0,0.00
2013-1-10,46.1,38.5,32.2,31.0,13.1,-99.9,65,44,35,30.42,29.96,14,-61,0,0.01
2013-1-11,41.1,34.4,26.3,35.0,25.9,-99.9,90,74,64,30.41,30.11,2,-10,0,0.13
2013-1-12,45.5,29.4,40.1,44.0,-9.8,-99.9,97,60,52,30.13,30.02,67,-307,0,0.00
2013-1-13,51.6,17.3,43.2,52.0,-62.4,-99.9,100,25,94,30.07,29.92,8,-620,0,0.00
2013-1-14,60.4,33.4,41.8,55.0,-18.3,-99.9,100,38,42,30.15,29.83,18,-352,0,0.03
2013-1-15,41.6,31.0,35.8,35.0,-3.0,-99.9,91,57,63,30.19,30.10,7,-189,0,0.01
2013-1-16,36.9,28.0,32.9,34.0,-3.0,-99.9,100,67,58,30.13,29.68,6,-157,0,0.51
2013-1-17,42.3,36.3,31.3,37.0,7.1,-99.9,100,57,16,29.97,29.75,11,2,0,0.05
2013-1-18,31.5,23.6,18.0,17.0,-0.1,-12.0,72,38,22,30.38,29.92,17,5,0,0.00
2013-1-19,47.0,35.5,18.0,35.0,10.7,-99.9,69,52,47,30.32,29.85,24,-34,0,0.00
2013-1-20,54.1,39.3,30.0,37.0,5.7,-99.9,72,44,33,29.83,29.48,16,-114,0,0.00
2013-1-21,29.3,19.9,23.9,22.0,-17.1,-99.9,87,41,34,30.01,29.68,11,-240,0,0.00
2013-1-22,25.0,21.3,13.1,22.0,6.1,-7.0,89,57,28,29.97,29.64,17,4,0,0.02
2013-1-23,15.4,11.6,7.4,0.0,-8.3,-12.0,60,41,31,30.05,29.96,16,4,0,0.00
2013-1-24,18.8,8.3,3.5,-10.0,-30.5,-99.9,53,30,24,30.10,29.95,18,-191,0,0.00
2013-1-25,25.0,14.6,7.7,12.0,-27.0,-99.9,77,28,22,30.20,29.95,11,-185,0,0.00
2013-1-26,24.5,18.0,11.7,12.0,2.6,-11.0,83,55,28,30.12,29.88,13,4,0,0.00
2013-1-27,29.8,17.2,13.1,3.0,-13.9,-99.9,56,36,26,30.36,30.12,13,-113,0,0.00
2013-1-28,32.1,23.4,14.3,30.0,6.6,-99.9,93,60,29,30.35,29.89,6,-52,0,0.00
2013-1-29,34.9,30.1,29.7,34.0,18.7,-99.9,100,85,93,30.10,29.89,6,-51,0,0.22
2013-1-30,60.5,50.6,34.7,57.0,31.2,-99.9,100,80,64,30.07,29.44,25,8,0,0.04
2013-1-31,59.2,49.2,31.8,57.0,28.1,-99.9,100,60,32,29.51,28.94,32,10,0,0.77
2013-2-1,31.6,28.6,23.2,13.0,4.7,-99.9,52,39,28,29.98,29.51,12,-6,0,0.00
2013-2-2,29.0,24.6,18.4,17.0,7.3,0.0,65,49,33,30.16,29.96,12,2,0,0.00
2013-2-3,30.0,25.5,22.1,22.0,19.2,14.0,85,77,64,29.96,29.61,11,3,0,0.00
2013-2-4,30.0,24.8,20.3,20.0,9.7,2.0,85,55,32,29.86,29.62,13,3,0,0.00
2013-2-5,26.6,24.4,22.1,24.0,14.3,7.0,89,66,52,29.93,29.82,6,1,0,0.00
2013-2-6,39.1,30.7,26.6,29.0,18.5,-99.9,91,66,36,30.17,29.81,12,-8,0,0.04
2013-2-7,29.4,24.4,18.3,17.0,4.6,-3.0,68,44,26,30.42,30.18,11,2,0,0.00
2013-2-8,32.9,30.6,26.6,32.0,20.6,-99.9,100,79,58,30.38,29.45,22,-16,0,0.11
2013-2-14,42.8,33.3,28.1,25.0,22.8,18.0,84,67,37,29.92,29.82,6,1,0,0.12
2013-2-15,47.6,37.4,27.5,39.0,30.9,24.0,93,79,50,29.94,29.85,16,3,0,0.01
2013-2-16,37.2,33.5,31.8,33.0,30.4,28.0,94,88,71,29.83,29.55,12,4,0,0.02
2013-2-17,31.5,22.8,18.6,28.0,11.9,-2.0,88,67,33,29.55,29.24,22,11,0,0.00
2013-2-18,30.6,22.7,15.4,2.0,-1.5,-5.0,47,36,22,30.06,29.56,25,8,0,0.00
2013-2-19,46.0,37.0,22.1,43.0,25.7,1.0,94,66,38,30.07,29.50,16,3,0,0.62
2013-2-20,42.9,33.2,26.0,41.0,19.3,7.0,95,60,37,29.69,29.45,19,5,0,0.01
2013-2-21,32.9,28.1,25.4,15.0,11.6,9.0,59,51,38,30.03,29.68,14,6,0,0.00
2013-2-22,36.3,31.9,27.3,25.0,20.9,15.0,75,64,57,30.26,30.03,18,4,0,0.00
2013-2-23,38.6,34.9,31.3,35.0,28.4,25.0,93,77,65,30.24,29.77,7,2,0,0.32
2013-2-24,41.1,36.9,31.0,40.0,35.5,30.0,95,94,93,29.77,29.52,14,6,0,1.08
2013-2-25,40.2,33.5,29.4,32.0,28.6,25.0,94,83,56,30.14,29.76,12,2,0,0.18
2013-2-26,42.2,35.5,26.6,36.0,26.9,22.0,93,73,46,30.24,30.05,10,2,0,0.00
2013-2-27,43.5,41.6,38.5,43.0,36.3,-99.9,100,90,52,30.04,29.45,20,7,0,0.37
2013-2-28,46.0,38.8,35.2,44.0,16.3,-99.9,100,77,52,29.55,29.42,6,0,0,0.00
2013-3-1,40.6,37.5,35.2,35.0,31.0,27.0,92,78,60,29.57,29.41,10,2,0,0.00
2013-3-2,42.5,37.3,33.4,29.0,26.4,24.0,74,65,50,29.57,29.52,9,2,0,0.00
2013-3-3,42.5,36.2,32.1,30.0,26.1,24.0,89,68,51,29.53,29.45,8,2,0,0.00
2013-3-4,39.5,34.6,29.4,29.0,22.4,19.0,89,62,46,29.60,29.46,21,7,0,0.00
2013-3-5,41.3,34.3,32.4,33.0,13.0,-99.9,89,60,58,29.95,29.60,13,-47,0,0.00
2013-3-6,39.6,36.5,32.9,36.0,25.7,-99.9,92,79,68,29.98,29.88,21,-13,0,0.02
2013-3-7,35.8,34.2,32.7,33.0,26.3,-99.9,100,88,87,29.87,29.80,33,13,0,0.73
2013-3-8,39.8,34.1,32.1,39.0,18.4,-99.9,100,84,58,29.99,29.77,24,10,0,0.79
2013-3-9,38.8,35.0,30.3,31.0,25.5,-99.9,89,73,64,30.23,29.99,22,-14,0,0.26
2013-3-10,39.8,35.5,29.8,33.0,29.2,28.0,92,78,66,30.31,30.22,10,2,0,0.01
2013-3-11,48.2,40.4,32.1,40.0,35.2,29.0,89,82,68,30.24,30.08,11,3,0,0.00
2013-3-12,54.1,46.9,42.3,52.0,39.6,-99.9,95,86,81,30.08,29.65,19,-41,0,0.75
2013-3-13,52.2,37.6,33.4,45.0,1.5,-99.9,97,44,31,29.69,29.59,13,-133,0,0.35
2013-3-14,36.5,31.4,24.1,25.0,14.7,2.0,75,52,35,29.73,29.61,18,4,0,0.00
2013-3-15,41.8,30.7,21.3,25.0,10.5,3.0,69,45,22,29.77,29.56,13,5,0,0.00
2013-3-16,39.5,33.8,28.4,25.0,15.7,4.0,77,50,24,29.76,29.59,9,2,0,0.00
2013-3-17,37.5,31.9,26.4,22.0,11.1,0.0,75,45,23,30.20,29.77,11,3,0,0.00
2013-3-18,35.8,28.5,20.0,25.0,11.1,-1.0,84,50,37,30.35,30.15,8,3,0,0.00
2013-3-19,40.5,34.5,29.5,41.0,19.1,-99.9,100,84,18,30.14,29.41,17,8,0,0.87
2013-3-20,40.5,32.5,26.4,28.0,19.1,7.0,90,60,37,29.73,29.57,13,4,0,0.00
2013-3-21,36.5,31.0,26.7,28.0,23.7,18.0,91,76,52,29.73,29.51,12,2,0,0.00
2013-3-22,39.8,33.0,27.0,28.0,20.5,13.0,92,63,35,29.65,29.51,12,3,0,0.19
2013-3-23,42.5,35.6,28.7,22.0,17.1,12.0,70,49,29,29.68,29.54,21,6,0,0.00
2013-3-24,47.0,37.2,29.7,27.0,21.3,17.0,80,54,33,29.72,29.62,10,3,0,0.00
2013-3-25,43.9,37.2,29.7,33.0,28.3,24.0,88,71,46,29.66,29.38,19,5,0,0.04
2013-3-26,47.6,39.7,32.7,31.0,24.5,18.0,89,58,32,29.67,29.38,20,4,0,0.04
2013-3-27,51.6,41.4,27.5,33.0,22.2,18.0,77,50,27,29.75,29.64,10,3,0,0.00
2013-3-28,47.3,41.0,37.0,36.0,31.1,24.0,89,70,44,29.92,29.74,14,4,0,0.04
2013-3-29,54.8,44.6,32.4,35.0,31.5,28.0,86,62,37,29.94,29.88,11,2,0,0.00
2013-3-30,52.5,44.7,34.0,33.0,29.0,22.0,86,56,31,30.00,29.91,10,2,0,0.00
2013-3-31,57.0,43.1,27.8,42.0,28.4,20.0,91,63,24,30.03,29.67,14,3,0,0.07
2013-4-1,56.6,47.9,36.3,46.0,37.5,10.0,94,70,30,29.70,29.45,14,6,0,0.06
2013-4-2,41.1,35.0,28.1,15.0,10.1,4.0,53,36,22,29.87,29.70,28,4,0,0.00
2013-4-3,45.2,36.9,30.1,14.0,10.0,6.0,50,34,21,30.06,29.84,19,6,0,0.00
2013-4-4,50.7,37.9,27.9,31.0,17.5,9.0,75,46,22,30.20,29.99,16,4,0,0.00
2013-4-5,57.6,44.5,38.0,38.0,31.7,23.0,80,62,32,29.99,29.54,10,2,0,0.00
2013-4-6,45.8,38.3,31.2,25.0,11.8,0.0,72,37,15,30.24,29.77,16,5,0,0.00
2013-4-7,50.4,42.1,27.6,41.0,29.7,16.0,88,65,28,30.24,29.95,17,6,0,0.00
2013-4-8,62.7,46.1,45.1,44.0,21.3,-99.9,89,56,39,30.03,29.87,8,-121,0,0.00
2013-4-9,74.0,55.3,45.8,52.0,44.2,36.0,94,69,28,30.02,29.75,12,4,0,0.01
2013-4-10,59.2,49.6,43.9,45.0,42.6,39.0,92,77,57,29.92,29.77,11,2,0,0.29
2013-4-11,49.1,45.7,43.5,44.0,38.8,32.0,94,78,54,30.03,29.72,16,3,0,0.02
2013-4-12,43.3,40.6,37.5,38.0,34.2,28.0,93,79,60,30.06,29.62,18,7,0,0.69
2013-4-13,49.4,41.3,37.6,39.0,36.4,34.0,93,83,60,29.85,29.61,24,5,0,0.04
2013-4-14,53.2,45.3,36.5,41.0,31.4,23.0,93,62,35,30.11,29.83,12,3,0,0.00
2013-4-15,54.5,44.8,35.9,36.0,31.9,25.0,83,62,43,30.32,30.11,16,2,0,0.00
2013-4-16,57.6,48.5,36.2,47.0,39.1,31.0,92,72,43,30.32,30.03,19,6,0,0.00
2013-4-17,66.8,56.6,44.3,50.0,40.8,29.0,88,60,27,30.23,29.99,12,3,0,0.00
2013-4-18,59.3,48.7,38.3,45.0,31.3,-99.9,91,59,28,30.32,30.07,19,-18,0,0.00
2013-4-19,69.8,61.2,51.6,65.0,57.0,46.0,95,86,71,30.08,29.64,24,8,0,0.05
2013-4-20,64.2,45.0,47.6,62.0,17.9,-99.9,92,60,44,30.09,29.57,21,-162,0,0.51
2013-4-21,47.4,41.3,35.3,31.0,20.9,-99.9,81,47,35,30.59,30.11,11,-7,0,0.00
2013-4-22,48.5,35.2,33.8,34.0,9.5,-99.9,86,55,35,30.64,30.48,17,-152,0,0.00
2013-4-23,42.8,38.2,40.1,41.0,22.3,-99.9,93,78,70,30.48,29.96,16,-80,0,0.37
2013-4-24,64.0,50.0,42.3,48.0,43.4,40.0,92,79,53,29.94,29.77,18,7,0,0.03
2013-4-25,63.5,52.9,42.3,51.0,40.5,28.0,91,67,26,30.15,29.79,16,3,0,0.06
2013-4-26,57.6,48.4,39.8,41.0,38.1,34.0,90,69,45,30.33,30.15,10,3,0,0.00
2013-4-27,60.2,49.4,37.9,45.0,34.4,26.0,93,61,33,30.33,30.24,11,2,0,0.00
2013-4-28,64.5,51.4,37.3,43.0,35.8,29.0,90,60,27,30.26,30.17,11,2,0,0.00
2013-4-29,63.9,53.1,44.2,46.0,33.6,14.0,92,56,16,30.20,30.14,13,2,0,0.00
2013-4-30,65.6,52.4,38.2,44.0,28.8,12.0,91,49,13,30.27,30.17,10,2,0,0.00
2013-5-1,62.6,51.8,38.5,43.0,37.6,28.0,88,62,28,30.39,30.27,11,2,0,0.00
2013-5-2,71.1,53.9,40.8,46.0,39.1,31.0,91,64,24,30.37,30.28,13,2,0,0.01
2013-5-3,51.1,46.2,42.3,42.0,39.9,39.0,88,79,67,30.40,30.27,17,4,0,0.00
2013-5-4,51.0,45.6,39.5,44.0,37.7,34.0,91,75,55,30.27,30.22,16,4,0,0.01
2013-5-5,54.4,42.7,37.3,43.0,24.1,-99.9,92,66,58,30.23,30.17,13,-80,0,0.00
2013-5-6,67.1,49.3,41.5,48.0,34.0,-99.9,94,70,49,30.20,30.07,10,-61,0,0.00
2013-5-7,72.1,59.2,44.8,57.0,51.1,43.0,95,76,54,30.10,30.03,10,2,0,0.00
2013-5-8,71.6,63.0,55.0,62.0,56.8,53.0,94,81,61,30.11,29.96,12,4,0,0.28
2013-5-9,65.3,60.0,54.7,62.0,51.4,-99.9,100,89,81,29.96,29.79,6,1,0,0.24
2013-5-10,77.0,63.1,54.8,60.0,50.0,-99.9,100,72,43,29.87,29.80,8,-19,0,0.00
2013-5-11,68.3,59.8,56.5,60.0,51.9,-99.9,94,83,67,29.86,29.63,14,-16,0,0.54
2013-5-12,70.1,60.7,49.9,63.0,42.4,-99.9,100,71,41,29.72,29.49,17,4,0,0.08
2013-5-13,59.6,37.0,41.5,36.0,-7.0,-99.9,73,34,30,29.93,29.73,16,-279,0,0.00
2013-5-14,56.6,27.9,42.8,33.0,-38.0,-99.9,60,19,30,29.95,29.88,17,-451,0,0.00
2013-5-15,62.4,51.6,37.3,52.0,39.0,27.0,87,66,27,29.97,29.60,21,4,0,0.03
2013-5-16,81.1,64.7,49.4,52.0,45.8,34.0,94,57,20,29.70,29.56,8,2,0,0.01
2013-5-17,64.2,56.6,49.5,48.0,38.8,-99.9,84,56,38,30.12,29.70,14,-18,0,0.00
2013-5-18,69.4,57.0,43.9,51.0,44.9,34.0,90,68,28,30.22,30.13,8,1,0,0.00
2013-5-19,69.9,55.4,47.7,54.0,38.5,-99.9,94,65,38,30.26,30.15,12,-50,0,0.08
2013-5-20,80.3,66.2,55.3,64.0,49.8,-99.9,100,76,56,30.14,29.83,11,2,0,0.05
2013-5-21,84.1,62.6,52.3,66.0,57.4,50.0,94,84,52,29.89,29.76,13,3,0,0.18
2013-5-22,72.0,58.3,51.0,62.0,54.3,49.0,95,87,69,29.91,29.81,13,3,0,0.02
2013-5-23,72.8,65.8,60.1,66.0,57.4,-99.9,100,87,76,29.84,29.77,18,6,0,0.08
2013-5-24,65.3,26.0,58.0,65.0,-46.7,-99.9,100,31,89,29.76,29.59,10,-562,0,0.73
2013-5-25,53.2,26.1,41.8,51.0,-23.8,-99.9,94,48,83,29.69,29.58,157,-412,0,0.09
2013-5-26,57.6,48.7,39.9,40.0,37.3,33.0,90,67,40,30.00,29.63,14,4,0,0.02
2013-5-27,71.8,58.2,42.8,46.0,37.4,29.0,86,52,22,30.08,29.98,13,2,0,0.00
2013-5-28,72.1,50.0,44.3,50.0,20.2,-99.9,92,51,34,30.14,30.09,12,-156,0,0.00
2013-5-29,72.3,52.2,57.6,63.0,29.8,-99.9,95,72,72,30.12,29.92,14,-156,0,0.80
2013-5-30,88.6,56.9,62.1,70.0,22.6,-99.9,100,56,45,30.00,29.92,9,-210,0,0.12
2013-5-31,92.3,66.3,60.4,68.0,33.4,-99.9,92,48,33,30.00,29.87,10,-167,0,0.00
2013-6-1,87.8,74.2,62.7,67.0,58.2,-99.9,89,64,41,29.91,29.81,13,-8,0,0.00
2013-6-2,82.0,71.0,64.2,66.0,62.2,60.0,88,75,55,29.84,29.72,21,6,0,0.00
2013-6-3,68.8,65.8,63.2,69.0,53.5,-99.9,100,88,49,29.76,29.70,7,2,0,1.47
2013-6-4,70.9,62.6,52.9,65.0,44.2,40.0,100,54,34,29.98,29.72,17,3,0,0.00
2013-6-5,70.8,60.1,48.9,50.0,45.6,42.0,89,62,35,30.10,29.99,11,1,0,0.00
2013-6-6,71.3,61.9,52.8,55.0,50.1,45.0,91,68,41,30.11,30.01,13,2,0,0.00
2013-6-7,59.6,57.0,54.8,58.0,44.8,-99.9,100,85,77,30.02,29.68,10,3,0,2.94
2013-6-8,76.8,65.5,55.9,69.0,60.9,56.0,100,87,59,29.91,29.46,13,3,0,0.62
2013-6-9,80.9,68.2,57.6,60.0,56.1,50.0,93,69,35,30.07,29.91,12,1,0,0.00
2013-6-10,69.8,62.7,57.3,59.0,56.9,53.0,94,82,57,30.11,29.92,8,2,0,0.67
2013-6-11,73.2,62.3,54.2,70.0,43.7,-99.9,100,83,51,29.92,29.45,11,3,0,1.65
2013-6-12,70.6,61.7,54.2,58.0,45.0,-99.9,100,71,16,29.72,29.47,16,3,0,0.00
2013-6-13,66.8,58.6,53.1,58.0,53.4,50.0,92,83,59,29.73,29.54,13,2,0,0.22
2013-6-14,66.6,57.6,52.3,55.0,50.8,45.0,94,80,53,29.66,29.49,21,6,0,0.99
2013-6-15,79.6,67.5,57.3,55.0,46.7,37.0,89,52,25,29.86,29.66,11,2,0,0.00
2013-6-16,77.7,66.1,53.9,61.0,53.8,47.0,91,68,37,29.86,29.66,12,2,0,0.00
2013-6-17,83.6,71.0,59.9,62.0,60.2,57.0,93,72,42,29.83,29.69,20,2,0,0.07
2013-6-18,74.6,64.1,58.4,66.0,55.2,-99.9,100,81,63,29.84,29.78,12,2,0,0.06
2013-6-19,69.6,63.0,56.6,56.0,50.7,43.0,93,67,40,30.06,29.78,13,4,0,0.02
2013-6-20,75.8,65.2,53.5,59.0,53.6,49.0,92,68,41,30.18,30.06,15,2,0,0.00
2013-6-21,81.2,68.3,56.7,61.0,55.3,51.0,88,65,49,30.19,30.12,10,2,0,0.00
2013-6-22,82.0,69.5,60.2,61.0,55.9,51.0,91,64,39,30.16,30.06,12,3,0,0.00
2013-6-23,85.1,73.7,63.9,67.0,63.8,61.0,91,73,46,30.10,29.94,12,3,0,0.00
2013-6-24,93.6,80.0,69.4,72.0,68.0,64.0,92,69,39,29.96,29.78,13,2,0,0.00
2013-6-25,91.8,78.8,69.1,69.0,65.6,63.0,86,66,39,29.83,29.65,12,1,0,0.00
2013-6-26,89.0,76.7,67.8,71.0,67.2,65.0,91,74,46,29.75,29.63,7,1,0,0.02
2013-6-27,68.9,65.8,63.9,68.0,47.4,-99.9,100,84,41,29.77,29.66,7,2,0,0.00
2013-6-28,71.6,69.6,65.5,72.0,58.3,-99.9,100,92,65,29.66,29.45,16,5,0,0.87
2013-6-29,76.5,71.3,69.1,72.0,68.8,65.0,100,92,70,29.66,29.45,17,4,0,0.05
2013-6-30,77.9,72.1,69.1,70.0,67.9,65.0,94,87,69,29.87,29.66,11,3,0,0.09
2013-7-1,78.1,72.2,69.6,75.0,61.2,-99.9,100,88,49,30.02,29.87,12,3,0,0.10
2013-7-2,81.2,74.8,71.6,71.0,70.0,69.0,93,85,71,30.12,30.01,10,3,0,0.01
2013-7-3,86.7,77.7,69.8,72.0,69.5,67.0,93,77,59,30.13,30.07,12,2,0,0.00
2013-7-4,90.5,80.6,72.7,73.0,71.6,70.0,92,75,55,30.12,30.02,13,2,0,0.00
2013-7-5,92.3,81.9,73.5,73.0,70.7,69.0,87,70,47,30.07,29.96,14,2,0,0.00
2013-7-6,92.7,82.0,72.8,74.0,70.3,67.0,89,70,43,29.99,29.88,10,1,0,0.00
2013-7-7,92.5,79.5,72.3,77.0,70.6,68.0,90,76,47,29.93,29.82,6,0,0,0.09
2013-7-8,89.3,68.4,67.1,71.0,47.3,-99.9,93,67,50,29.95,29.83,9,-102,0,0.00
2013-7-9,72.8,45.8,65.8,67.0,3.2,-99.9,95,58,80,30.01,29.94,10,-249,0,0.00
2013-7-10,82.4,56.2,69.4,77.0,12.0,-99.9,93,55,68,29.98,29.73,10,-207,0,0.00
2013-7-11,77.2,73.3,69.4,72.0,66.6,-99.9,92,86,77,29.81,29.71,6,-10,0,0.47
2013-7-12,71.5,68.3,65.3,69.0,63.4,59.0,93,84,74,30.09,29.81,14,5,0,0.00
2013-7-13,79.0,69.3,64.7,70.0,66.7,63.0,95,91,73,30.21,30.09,8,2,0,0.69
2013-7-14,89.9,76.5,71.1,78.0,68.6,-99.9,100,82,49,30.21,30.10,8,-20,0,0.01
2013-7-15,89.0,80.8,72.1,73.0,69.7,65.0,92,71,48,30.11,30.01,8,1,0,0.00
2013-7-16,89.0,79.9,72.1,71.0,67.3,63.0,90,67,46,30.07,30.00,8,2,0,0.00
2013-7-17,89.9,79.4,69.9,71.0,67.3,63.0,91,68,47,30.09,29.95,20,2,0,0.00
2013-7-18,88.8,80.7,74.2,73.0,70.0,67.0,87,70,56,29.94,29.87,12,2,0,0.00
2013-7-19,95.4,83.3,74.9,77.0,73.3,71.0,91,73,47,29.86,29.66,8,3,0,0.00
2013-7-20,92.3,81.3,72.0,75.0,72.6,69.0,91,76,48,29.70,29.55,7,1,0,0.27
2013-7-21,82.2,74.5,69.8,70.0,66.9,62.0,93,78,55,29.90,29.70,5,1,0,0.01
2013-7-22,80.3,73.3,67.8,68.0,66.6,64.0,92,81,59,29.91,29.79,11,2,0,0.00
2013-7-23,82.6,71.9,69.4,79.0,52.1,-99.9,100,78,68,29.79,29.45,17,-20,0,0.48
2013-7-24,86.5,71.7,71.6,77.0,35.1,-99.9,92,56,51,29.82,29.49,7,-64,0,0.00
2013-7-25,71.1,63.5,61.0,59.0,56.4,53.0,88,78,63,29.98,29.83,17,6,0,0.04
2013-7-26,67.1,64.6,62.3,65.0,62.4,58.0,94,92,82,29.93,29.81,16,4,0,0.88
2013-7-27,82.2,70.1,62.6,69.0,52.4,-99.9,100,71,44,29.97,29.92,14,-9,0,0.01
2013-7-28,74.6,60.7,69.6,70.0,42.6,-99.9,94,75,81,29.93,29.86,6,-118,0,0.15
2013-7-29,80.3,72.4,67.8,71.0,63.9,-99.9,95,82,65,29.94,29.90,8,-11,0,0.00
2013-7-30,81.8,64.7,63.4,68.0,41.5,-99.9,92,59,39,30.00,29.93,10,-113,0,0.01
2013-7-31,80.5,46.9,66.0,62.0,0.6,-99.9,84,38,45,30.03,29.96,8,-367,0,0.00
2013-8-1,78.3,69.0,62.6,64.0,60.7,57.0,92,77,49,29.97,29.82,12,1,0,0.14
2013-8-2,83.2,71.4,62.7,69.0,62.9,57.0,94,77,44,29.81,29.71,10,1,0,0.79
2013-8-3,76.1,70.4,66.4,65.0,63.2,61.0,91,78,62,29.79,29.71,7,1,0,0.00
2013-8-4,79.6,69.3,59.3,62.0,56.3,52.0,86,65,38,29.78,29.68,8,1,0,0.00
2013-8-5,76.0,65.4,56.2,56.0,48.5,39.0,84,59,26,29.95,29.78,8,2,0,0.00
2013-8-6,78.6,65.3,50.8,56.0,50.1,44.0,90,62,33,30.07,29.95,10,1,0,0.00
2013-8-7,76.1,66.1,56.0,65.0,53.4,47.0,94,67,36,30.10,30.04,11,1,0,0.00
2013-8-8,79.4,71.2,61.6,68.0,63.4,54.0,87,77,64,30.05,29.95,10,3,0,0.00
2013-8-9,74.2,73.0,71.8,72.0,69.8,68.0,94,90,83,29.98,29.69,16,5,0,1.26
2013-8-10,83.0,75.0,66.0,71.0,61.5,53.0,93,66,40,29.91,29.70,13,2,0,0.00
2013-8-11,79.8,67.3,56.6,57.0,53.1,48.0,87,63,36,29.99,29.91,7,0,0,0.00
2013-8-12,82.0,69.9,59.3,65.0,60.0,56.0,92,73,42,29.95,29.84,7,1,0,0.00
2013-8-13,71.6,67.1,62.1,69.0,63.2,60.0,92,87,77,29.84,29.60,6,1,0,0.02
2013-8-14,73.9,67.0,62.0,63.0,54.0,49.0,93,66,43,29.87,29.58,11,2,0,0.00
2013-8-15,76.7,65.3,56.0,55.0,50.1,43.0,81,61,32,30.03,29.87,6,1,0,0.00
2013-8-16,77.6,67.1,54.5,57.0,53.9,49.0,91,66,39,30.11,30.02,12,1,0,0.00
2013-8-17,76.1,66.9,55.7,59.0,56.2,53.0,91,71,46,30.19,30.11,9,2,0,0.00
2013-8-18,77.6,67.3,58.3,62.0,57.8,54.0,92,74,44,30.18,30.01,6,0,0,0.01
2013-8-19,81.8,69.7,56.6,61.0,58.2,54.0,92,69,40,30.00,29.86,8,0,0,0.01
2013-8-20,86.3,74.7,65.2,63.0,61.3,59.0,85,65,40,30.00,29.89,3,0,0,0.00
2013-8-21,88.0,72.6,61.8,64.0,58.3,-99.9,90,67,39,30.05,29.95,8,-10,0,0.00
2013-8-22,84.0,72.4,64.5,70.0,66.5,61.0,91,82,59,29.95,29.75,7,1,0,0.07
2013-8-23,74.4,69.8,61.8,68.0,58.6,50.0,92,70,46,30.01,29.72,12,3,0,0.01
2013-8-24,71.3,63.9,53.3,56.0,48.3,35.0,83,61,28,30.24,30.00,12,3,0,0.00
2013-8-25,82.8,66.3,50.5,55.0,50.4,45.0,91,61,28,30.27,30.11,9,1,0,0.00
2013-8-26,79.6,70.8,63.9,65.0,60.9,55.0,83,72,53,30.11,29.79,11,1,0,0.00
2013-8-27,75.1,70.0,65.6,69.0,66.6,48.0,100,89,47,29.80,29.74,7,1,0,0.52
2013-8-28,77.7,68.8,63.5,71.0,58.0,-99.9,100,84,63,29.86,29.76,8,2,0,0.00
2013-8-29,65.0,63.3,59.3,65.0,47.3,-99.9,100,84,68,29.96,29.84,11,3,0,0.03
2013-8-30,78.1,66.4,58.1,67.0,59.6,-99.9,93,81,65,29.93,29.75,6,-10,0,0.00
2013-8-31,79.0,63.7,67.1,72.0,29.6,-99.9,93,65,73,29.76,29.73,8,-123,0,0.00
2013-9-1,76.7,50.0,69.8,76.0,13.1,-99.9,100,60,82,29.81,29.73,8,-290,0,1.17
2013-9-2,78.1,63.8,71.6,74.0,42.7,-99.9,100,75,49,29.79,29.64,11,-123,0,0.29
2013-9-3,80.9,68.3,65.3,72.0,36.3,-99.9,100,70,47,29.72,29.61,6,-51,0,0.21
2013-9-4,80.3,62.8,58.9,64.0,44.1,-99.9,94,65,40,29.84,29.71,7,-84,0,0.01
2013-9-5,66.1,61.8,53.2,62.0,56.6,51.0,93,83,68,30.03,29.78,12,2,0,0.03
2013-9-6,67.4,56.6,47.7,51.0,45.6,39.0,92,69,38,30.14,30.02,7,1,0,0.01
2013-9-7,76.8,62.0,48.2,56.0,50.0,46.0,92,68,37,30.02,29.79,9,1,0,0.01
2013-9-8,75.6,63.5,53.1,60.0,45.8,-99.9,89,62,32,29.98,29.65,13,-29,0,0.00
2013-9-9,67.6,54.1,45.2,51.0,39.0,-99.9,87,65,41,30.15,29.99,7,-30,0,0.00
2013-9-10,73.3,64.6,54.7,67.0,56.5,-99.9,89,79,72,30.09,29.95,13,-18,0,0.00
2013-9-11,92.5,77.4,68.6,74.0,69.5,67.0,94,78,51,30.00,29.88,10,2,0,0.00
2013-9-12,79.6,73.5,68.9,70.0,68.1,66.0,92,83,71,29.90,29.62,21,5,0,0.04
2013-9-13,79.6,69.9,61.0,68.0,64.5,56.0,95,84,57,29.64,29.47,11,1,0,0.08
2013-9-14,68.9,62.3,56.0,55.0,52.5,50.0,85,71,56,29.95,29.64,10,1,0,0.00
2013-9-15,70.4,59.4,49.1,53.0,49.6,47.0,91,72,45,30.07,29.96,6,1,0,0.00
2013-9-16,65.5,57.8,51.4,56.0,51.1,39.0,92,79,57,30.12,29.93,14,2,0,0.03
2013-9-17,57.6,51.6,43.5,42.0,37.8,31.0,89,61,36,30.31,30.12,19,5,0,0.00
2013-9-18,72.3,55.6,40.2,47.0,41.7,37.0,92,65,30,30.23,30.06,5,0,0,0.00
2013-9-19,78.1,61.9,47.7,55.0,49.8,46.0,93,68,37,30.06,29.94,5,0,0,0.00
2013-9-20,79.2,62.5,48.0,57.0,51.6,46.0,92,71,33,29.99,29.91,7,1,0,0.00
2013-9-21,74.2,65.9,56.2,65.0,59.8,55.0,100,81,58,29.95,29.67,17,5,0,0.03
2013-9-22,71.6,65.4,53.5,65.0,57.7,46.0,94,77,56,29.72,29.55,16,3,0,0.74
2013-9-23,63.9,51.8,45.8,46.0,35.3,-99.9,79,61,44,29.90,29.72,11,-8,0,0.00
2013-9-24,65.6,52.5,42.2,47.0,41.4,38.0,86,68,39,29.89,29.72,8,1,0,0.00
2013-9-25,62.1,53.9,44.3,48.0,45.3,42.0,92,74,54,29.88,29.79,11,2,0,0.00
2013-9-26,60.9,56.0,51.9,49.0,47.5,45.0,87,74,59,30.01,29.88,11,2,0,0.00
2013-9-27,62.0,56.8,48.0,52.0,49.3,45.0,90,77,58,30.16,30.01,16,2,0,0.00
2013-9-28,68.4,56.2,45.2,55.0,49.9,43.0,93,80,57,30.22,30.15,11,2,0,0.00
2013-9-29,63.5,54.5,44.2,55.0,48.7,42.0,94,82,61,30.17,30.01,10,2,0,0.01
2013-9-30,63.4,57.5,48.0,56.0,52.2,46.0,93,83,66,30.01,29.87,10,2,0,0.00
2013-10-1,75.8,58.9,45.5,52.0,48.8,43.0,93,73,37,29.86,29.76,13,1,0,0.01
2013-10-2,80.7,67.0,54.5,59.0,55.9,51.0,91,70,44,29.85,29.73,10,1,0,0.00
2013-10-3,79.4,65.4,53.1,55.0,48.8,40.0,87,59,27,29.98,29.85,6,0,0,0.00
2013-10-4,67.1,56.4,48.5,57.0,52.7,46.0,93,87,64,29.99,29.94,5,0,0,0.83
2013-10-5,66.4,60.2,56.5,61.0,49.3,-99.9,100,82,48,30.03,29.96,5,1,0,0.01
2013-10-6,61.0,59.3,57.8,57.0,55.1,52.0,92,86,75,30.11,30.03,11,2,0,0.02
2013-10-7,74.4,68.1,59.5,68.0,63.5,-99.9,93,87,78,30.02,29.75,17,-5,0,0.00
2013-10-8,67.3,58.3,49.4,65.0,46.0,40.0,91,66,40,30.25,29.78,17,2,0,0.00
2013-10-9,59.5,54.2,48.0,46.0,43.5,40.0,89,68,54,30.35,30.25,14,3,0,0.00
2013-10-10,61.3,56.4,50.2,55.0,50.7,43.0,89,81,73,30.25,30.06,11,3,0,0.00
2013-10-11,63.7,55.3,51.1,55.0,44.3,-99.9,91,76,58,30.05,30.00,12,-49,0,0.00
2013-10-12,62.4,57.3,51.6,55.0,51.5,47.0,87,81,75,30.27,30.03,13,4,0,0.00
2013-10-13,57.5,53.0,41.8,47.0,42.9,31.0,78,69,59,30.34,30.25,12,3,0,0.00
2013-10-14,64.8,42.0,36.2,49.0,13.3,-99.9,94,58,36,30.31,30.17,8,-145,0,0.00
2013-10-15,66.6,48.3,42.1,50.0,29.0,-99.9,93,67,40,30.18,30.08,7,-95,0,0.01
2013-10-16,59.8,54.4,47.1,56.0,51.8,45.0,95,91,84,30.08,29.82,11,2,0,0.01
2013-10-17,70.1,30.8,55.3,61.0,-31.2,-99.9,100,35,66,29.82,29.65,5,-457,0,0.00
2013-10-18,68.9,49.1,48.8,61.0,9.0,-99.9,91,45,42,29.82,29.54,12,-196,0,0.00
2013-10-19,64.0,52.3,40.9,49.0,38.0,-99.9,90,66,40,29.90,29.68,6,-20,0,0.00
2013-10-20,62.7,53.9,40.6,52.0,39.5,28.0,92,63,28,29.93,29.61,14,2,0,0.00
2013-10-21,66.6,49.9,35.9,45.0,36.5,-99.9,91,66,33,30.03,29.93,7,-10,0,0.00
2013-10-22,68.3,55.9,45.2,53.0,46.5,38.0,92,73,49,29.92,29.61,17,2,0,0.00
2013-10-23,51.0,43.2,38.0,45.0,30.1,-99.9,90,72,54,29.71,29.50,4,-31,0,0.04
2013-10-24,53.3,44.4,38.6,38.0,29.5,21.0,85,59,29,29.80,29.53,7,1,0,0.00
2013-10-25,49.6,41.4,33.4,33.0,26.3,-99.9,77,58,42,30.07,29.80,10,-9,0,0.00
2013-10-26,55.1,43.8,29.4,39.0,31.0,22.0,91,64,28,30.07,29.80,18,2,0,0.00
2013-10-27,56.3,47.4,37.9,41.0,32.2,-99.9,88,59,38,29.97,29.73,10,-9,0,0.02
2013-10-28,59.2,46.5,32.2,35.0,30.3,26.0,86,56,34,30.23,29.97,11,2,0,0.00
2013-10-29,51.1,39.2,32.1,33.0,25.7,-99.9,88,63,41,30.32,30.23,7,-20,0,0.00
2013-10-30,50.7,34.9,31.3,44.0,7.0,-99.9,92,68,76,30.28,30.10,5,-158,0,0.03
2013-10-31,63.4,52.2,36.0,59.0,48.4,34.0,94,87,74,30.15,29.77,16,3,0,0.04
2013-11-1,70.1,64.7,60.1,63.0,58.1,52.0,92,79,68,29.75,29.43,25,7,0,0.03
2013-11-2,65.3,58.5,53.5,53.0,48.5,43.0,83,70,47,29.61,29.50,4,0,0,0.00
2013-11-5,49.2,41.0,35.3,32.0,31.1,29.0,87,70,47,30.53,30.44,6,0,0,0.00
2013-11-6,58.1,47.3,35.5,51.0,40.1,32.0,89,78,54,30.43,30.06,14,3,0,0.00
2013-11-7,63.1,54.0,42.2,60.0,50.2,33.0,93,86,69,29.74,29.58,11,3,0,0.55
2013-11-8,47.9,41.4,33.4,33.0,27.8,20.0,79,60,38,29.92,29.72,13,3,0,0.00
2013-11-9,43.9,40.5,37.8,29.0,22.9,18.0,69,51,37,30.10,29.97,10,2,0,0.00
2013-11-10,54.4,46.0,38.5,46.0,36.7,28.0,92,71,53,29.96,29.63,10,1,0,0.04
2013-11-11,52.2,45.9,38.3,38.0,28.1,22.0,63,51,31,30.00,29.80,12,3,0,0.00
2013-11-12,51.3,37.4,29.0,39.0,26.2,14.0,90,65,51,30.07,29.79,17,4,0,0.15
2013-11-13,36.3,29.5,25.0,14.0,12.4,10.0,64,50,34,30.17,30.07,10,3,0,0.00
2013-11-14,51.1,39.7,26.3,28.0,19.6,13.0,66,47,27,30.10,29.95,13,2,0,0.00
2013-11-15,58.9,45.6,29.8,42.0,28.3,19.0,89,55,24,30.12,30.04,8,1,0,0.00
2013-11-16,61.0,46.2,35.2,40.0,33.7,28.0,89,65,33,30.23,30.11,8,0,0,0.00
2013-11-17,60.9,48.7,33.4,58.0,39.8,-99.9,100,85,59,30.22,29.78,10,2,0,0.14
2013-11-18,64.3,58.9,49.1,63.0,48.5,-99.9,100,78,50,29.77,29.46,16,4,0,0.45
2013-11-19,43.2,39.3,32.4,24.0,18.0,15.0,52,43,33,30.15,29.75,15,6,0,0.00
2013-11-20,40.2,32.3,26.3,17.0,13.3,8.0,67,47,27,30.50,30.16,18,2,0,0.00
2013-11-21,47.0,36.2,25.8,29.0,21.1,14.0,69,55,38,30.53,30.30,4,0,0,0.00
2013-11-22,51.0,45.4,38.3,51.0,31.0,-99.9,100,81,44,30.30,29.73,3,0,0,0.27
2013-11-23,47.9,42.6,30.4,48.0,20.5,-99.9,100,51,23,29.78,29.69,16,5,0,0.00
2013-11-24,30.1,24.7,21.0,15.0,0.8,-10.0,54,37,20,30.07,29.69,21,10,0,0.00
2013-11-25,32.4,24.4,16.9,17.0,-0.5,-10.0,64,36,16,30.27,30.09,11,3,0,0.00
2013-11-26,45.2,39.1,28.5,43.0,26.4,16.0,93,63,40,30.23,29.95,7,1,0,0.15
2013-11-27,62.0,53.7,38.5,62.0,28.5,-99.9,100,81,19,29.94,29.08,29,8,0,2.69
2013-11-28,38.0,31.5,23.3,33.0,15.4,4.0,82,53,30,30.35,29.39,21,5,0,0.00
2013-11-29,34.0,25.8,23.3,16.0,2.3,-99.9,64,45,36,30.63,30.34,10,-71,0,0.00
2013-11-30,34.9,17.9,22.5,23.0,-32.3,-99.9,70,33,41,30.67,30.36,6,-409,0,0.00
2013-12-1,47.6,34.0,32.7,45.0,5.1,-99.9,92,62,71,30.35,29.88,10,-217,0,0.01
2013-12-2,40.2,38.8,36.8,40.0,15.3,-99.9,100,78,35,29.88,29.80,6,1,0,0.00
2013-12-3,47.4,39.1,35.2,36.0,33.4,30.0,93,81,52,29.83,29.72,13,3,0,0.00
2013-12-4,44.1,33.6,30.0,31.0,17.4,-99.9,90,67,50,30.10,29.84,7,-61,0,0.00
2013-12-5,55.4,38.5,30.3,55.0,-1.5,-99.9,100,60,28,30.11,29.84,7,-175,0,0.03
2013-12-6,57.0,50.1,38.2,57.0,45.9,-99.9,100,94,85,30.01,29.77,10,2,0,0.35
2013-12-7,40.3,34.6,29.1,35.0,27.2,17.0,92,76,51,30.35,29.96,11,3,0,0.18
2013-12-8,31.3,28.6,23.3,20.0,15.3,12.0,74,58,46,30.49,30.35,6,1,0,0.00
2013-12-9,42.6,35.0,29.7,43.0,13.3,-99.9,100,76,51,30.38,29.77,10,-41,0,0.33
2013-12-10,35.6,31.4,25.1,36.0,6.0,-99.9,100,75,43,29.91,29.69,7,1,0,0.05
2013-12-11,32.4,22.3,21.6,19.0,-4.9,-99.9,86,56,53,30.14,29.92,10,-156,0,0.02
2013-12-12,26.3,12.9,18.8,17.0,-44.9,-99.9,70,24,28,30.17,30.00,12,-428,0,0.00
2013-12-13,30.3,22.5,14.8,13.0,3.2,-99.9,72,51,38,30.25,29.92,20,-50,0,0.00
2013-12-14,22.4,16.5,13.8,13.0,3.5,-3.0,77,57,47,30.49,30.25,11,5,0,0.00
2013-12-18,33.7,24.3,24.8,23.0,-3.6,-99.9,75,53,51,30.00,29.78,10,-168,0,0.07
2013-12-19,44.9,18.5,26.3,28.0,-47.5,-99.9,72,25,50,30.02,29.86,12,-472,0,0.12
2013-12-20,53.5,32.1,32.7,41.0,-12.5,-99.9,77,43,53,30.03,29.84,9,-272,0,0.00
2013-12-21,59.0,42.6,45.7,48.0,12.0,-99.9,90,62,64,29.90,29.79,13,-134,0,0.00
2013-12-22,60.5,37.6,55.7,58.0,-45.8,-99.9,91,31,89,29.83,29.74,17,-304,0,0.00
2014-1-2,29.4,27.1,23.5,27.0,22.7,-99.9,92,88,83,30.06,29.61,15,8,0,0.00